Preview of NWS' New Version of Forecast
This preview is not operational and should not be used for support decisions.

Regional Weather Roundup (RWR)

Issued by Gray - Portland, ME (GYX)

                            
000
ASUS41 KGYX 202310
RWRGYX
WEATHER ROUNDUP FOR MAINE AND NEW HAMPSHIRE
NATIONAL WEATHER SERVICE GRAY ME
700 PM EDT TUE AUG 20 2019

MEZ002-005-006-010-012-015-018-020-021-024-026-027-029-210000-
MAINE
  
CITY           SKY/WX    TMP DP  RH WIND       PRES   REMARKS
PORTLAND       FAIR      76  55  48 S7        30.02F                  
SANFORD        FAIR      75  60  59 S5        30.04S                  
BAR HARBOR     FAIR      75  59  57 SW5       30.02S                  
WISCASSET      FAIR      77  53  43 SW6       30.03F                  
ROCKLAND       FAIR      74  59  59 SW5       30.03R                  
FRYEBURG       FAIR      76  61  59 SW5       30.02F                  
LEWISTONAUBURN   N/A     77  61  57 S7        30.02S                  
AUGUSTA        FAIR      79  57  46 CALM      30.02F                  
WATERVILLE     FAIR      74  61  63 S3        29.99F                  
BANGOR         FAIR      76  59  55 SW5       30.01S                  
GREENVILLE     NOT AVBL                                               
MILLINOCKET    FAIR      75  60  59 CALM      30.01S                  
HOULTON        FAIR      72  58  61 CALM      29.97F                  
PRESQUE ISLE   FAIR      77  55  46 SW3       29.98S                  
FRENCHVILLE    FAIR      72  50  45 W9        29.96S                  
CARIBOU        FAIR      77  52  41 W6        29.95F                  
$$

NHZ002-005-008-009-011-012-014-210000-
NEW HAMPSHIRE
  
CITY           SKY/WX    TMP DP  RH WIND       PRES   REMARKS
PORTSMOUTH     PTCLDY    74  57  53 SE7       30.02R                  
ROCHESTER      FAIR      76  58  53 S6        30.03S                  
NASHUA         FAIR      80  60  50 CALM      30.04S                  
MANCHESTER     FAIR      85  53  33 SW5       30.02R                  
CONCORD        FAIR      81  56  42 SW5       30.03S                  
LACONIA        FAIR      77  63  61 CALM      30.04S                  
PLYMOUTH       FAIR      75  63  65 CALM      30.02S                  
BERLIN         NOT AVBL                                               
WHITEFIELD     FAIR      76  56  49 CALM      30.05S                  
JAFFREY        FAIR      75  60  59 CALM      30.08F                  
KEENE          FAIR      78  63  59 CALM      30.04S                  
LEBANON        FAIR      83  52  34 W5        30.02S                  
MT WASHINGTON  PTCLDY    54  46  76 W21         N/A                   
$$

VTZ005-007-008-210000-
VERMONT
  
CITY           SKY/WX    TMP DP  RH WIND       PRES   REMARKS
ST JOHNSBURY     N/A     77  59  53 MISG      29.99F                  
MONTPELIER     FAIR      75  57  53 S5        30.07F                  
BURLINGTON     FAIR      81  53  37 S6        29.99F                  
$$

MAZ007-012-024-CTZ003-RIZ002-NYZ038-NYZ072-210000-
SOUTHERN NEW ENGLAND AND NY
  
CITY           SKY/WX    TMP DP  RH WIND       PRES   REMARKS
BOSTON         MOCLDY    73  64  73 E8        30.03F                  
WORCESTER      FAIR      77  56  48 S5        30.08F                  
NANTUCKET      FAIR      72  69  90 SE3       30.06F                  
PROVIDENCE     FAIR      84  57  39 W5        30.05S                  
HARTFORD       FAIR      85  54  34 W7        30.03F                  
ALBANY         FAIR      83  62  49 S9        30.03S                  
NEW YORK CITY  FAIR      85  61  44 S9        30.02F                  
$$

ANZ081-ANZ082-ANZ150-NHZ014-MEZ023>029-210000-
COASTAL MARINE OBSERVATIONS
  
STATION/POSITION TIME  TEMP    WIND        PRES    WAVE
                       AIR SEA DIR/SP/G            HT/PER
                 (UTC) (F)     (DEG/KT/KT) (MB)    (FT/S)
MATINICUS ROCK   2250   71                 1016.5R
ISLE OF SHOALS   2200   72     150/ 15/ 16 1016.3F
JEFFREYS LEDGE   2238      68                N/A     2/10
CASHES LEDGE BUO 2250   67 66  200/  8/  8 1017.5F   2/ 8
GEORGES BANK BUO 2250   70 72  270/  8/ 10 1018.4R   3/ 8
$$

.............KEY..............
   WCI - WIND CHILL
   TC  - TEMPERATURE IN CELSIUS
   VSB - VISIBILITY IN MILES
   HX  - HEAT INDEX
   FAIR- INDICATES FEW OR NO CLOUDS BELOW 12,000 FT, WITH NO 
         SIGNIFICANT WEATHER AND/OR OBSTRUCTIONS TO VISIBILITY.